sat.trackr.live / text

‹ back to catalog

STARLING 4

NORAD 57386 · 2023-100A

PAYLOAD ACTIVE UNKNOWN

§ Identity

Operator
Country
US
Launch date
2023-07-18
Launch site
RLLB
Launch vehicle
Mass (kg)
RCS (m²)

External: N2YO · Heavens-Above · Gunter

§ Orbital elements

Epoch: 2026-09-21T22:18:29.903328Z

Period
95.55 min
Inclination
99.5051°
Eccentricity
0.0006833
Mean motion
15.07046381 rev/d
Perigee alt
540.5 km
Apogee alt
550.0 km
Semi-major
6,923.4 km
B*
8.8073e-5
RAAN
305.2363°
Arg perigee
153.6251°
Mean anomaly
206.5320°
Rev number
17,447

§ Raw data

STARLING 41 57386U 23100A   26264.92951277  .00001230  00000+0  88073-4 0  99922 57386  99.5051 305.2363 0006833 153.6251 206.5320 15.07046381174471

JSON: /api/v1/satellites/57386 · /tle

For live sub-satellite position, see the globe view (requires WebGL).

§ Visibility from observer

Set your observer location to see the next 7 days of passes ≥ 10°. The values pass through the URL so the page stays shareable.

No JS? Fill the form by hand. The geolocation button needs JavaScript.